Regional Weather Roundup
Issued by NWS Upton, NY

Current Version | Previous Version | Text Only | Print | Product List | Glossary On
Versions: 1 2 3 4 5 6 7 8 9 10 11 12 13 14 15 16 17 18 19 20 21 22 23 24 25 26 27
000
ASUS41 KOKX 240704
RWROKX

REGIONAL WEATHER ROUNDUP
NATIONAL WEATHER SERVICE NEW YORK NY
300 AM EDT TUE MAY 24 2016

NOTE: "FAIR" INDICATES FEW OR NO CLOUDS BELOW 12,000 FEET WITH NO
SIGNIFICANT WEATHER AND/OR OBSTRUCTIONS TO VISIBILITY.

NYZ071-072-176-178-NJZ106-104-240800-
NEW YORK CITY METRO AREA


CITY           SKY/WX    TMP DP  RH WIND       PRES   REMARKS
CENTRAL PARK   LGT RAIN  58  53  84 CALM      29.91F
LAGUARDIA APRT LGT RAIN  62  58  86 W7        29.87F
KENNEDY INTL   LGT RAIN  60  55  83 NW8       29.88F
NEWARK/LIBERTY LGT RAIN  60  55  83 SW3       29.88F
BRNX BOT. GARD   N/A     59  54  82 N3        29.90F
TETERBORO      LGT RAIN  59  53  80 CALM      29.88F
$$

NYZ177-179-078>081-240800-
LONG ISLAND NEW YORK

CITY           SKY/WX    TMP DP  RH WIND       PRES   REMARKS
FARMINGDALE    CLOUDY    57  53  86 NW6       29.87S FOG
ISLIP          LGT RAIN  56  52  86 W8        29.85F
SHIRLEY        CLOUDY    56  53  90 N7        29.86S
RIVERHEAD        N/A     55  54  94 N1        29.86R
WESTHAMPTON    CLOUDY    51  51 100 NW6       29.87S
EAST HAMPTON   CLOUDY    55  54  94 NW3       29.86S
MONTAUK POINT    N/A     55  54  96 N10       29.85F
$$

NYZ052-065-067-240800-
HUDSON VALLEY

CITY           SKY/WX    TMP DP  RH WIND       PRES   REMARKS
WHITE PLAINS   LGT RAIN  57  53  86 NW8       29.87F
NEWBURGH       DRIZZLE   59  54  82 SE9       29.91S
MONTGOMERY     CLOUDY    58  53  84 CALM      29.90R
POUGHKEEPSIE   LGT RAIN  60  53  77 SE3       29.90S
ALBANY         CLOUDY    64  51  62 S7        29.90R
$$

NJZ001-105-106-008-010-013-015-019>022-104-240800-
NEW JERSEY

CITY           SKY/WX    TMP DP  RH WIND       PRES   REMARKS
NEWARK/LIBERTY LGT RAIN  60  55  83 SW3       29.88F
TETERBORO      LGT RAIN  59  53  80 CALM      29.88F
CALDWELL       LGT RAIN  57  55  93 NW3       29.89F
MORRISTOWN     CLOUDY    57  55  94 N5        29.91R
SOMERVILLE     CLOUDY    56  54  93 CALM      29.88R
SUSSEX         CLOUDY    59  54  83 CALM      29.89R
ANDOVER          N/A     59  55  87 SE3       29.89S
TRENTON        CLOUDY    57  54  89 S3        29.88S
MILLVILLE      LGT RAIN  56  54  93 SW3       29.90F
ATLANTIC CITY  LGT RAIN  56  54  93 W3        29.90F
WRIGHTSTOWN    LGT RAIN  55  53  93 SW5       29.87S
TOMS RIVER     CLOUDY    55  52  88 W3        29.90S
BELMAR         LGT RAIN  56  53  90 W6        29.89F
$$

PAZ047>061-062-071-240800-
EASTERN PENNSYLVANIA

CITY           SKY/WX    TMP DP  RH WIND       PRES   REMARKS
PHILADELPHIA   LGT RAIN  59  54  83 SW14      29.89F
ALLENTOWN      CLOUDY    58  54  86 W6        29.88S
SCRANTON       CLOUDY    63  44  50 N3        29.90S
$$

CTZ002-004>006-009-010-012-RIZ004-006-007-MAZ004-011-015-240800-
SOUTHERN NEW ENGLAND
 IN CT

CITY           SKY/WX    TMP DP  RH WIND       PRES   REMARKS
BRADLEY INTL   LGT RAIN  58  54  86 N5        29.87S
HARTFORD       CLOUDY    60  56  86 E3        29.87F
DANBURY        LGT RAIN  56  52  86 W6        29.89F
WTRBRY/OXFORD    N/A     55  48  76 NW3       29.89F
BRIDGEPORT     CLOUDY    59  52  77 N3        29.86S
MERIDEN        LGT RAIN  57  53  86 CALM      29.86F
NEW HAVEN      CLOUDY    57  53  86 CALM      29.85F
CHESTER        RAIN      55  54  94 NW6       29.86F
GROTON         LGT RAIN  57  56  96 N8        29.86R FOG
WILLIMANTIC    CLOUDY    60  53  77 NE3       29.87F

 IN RI

CITY           SKY/WX    TMP DP  RH WIND       PRES   REMARKS
PROVIDENCE     LGT RAIN  60  54  80 NE10      29.87F
BLOCK ISLAND   CLOUDY    56  55  97 MISG        N/A
WESTERLY       LGT RAIN  58  53  84 W3        29.86S

 IN MA

CITY           SKY/WX    TMP DP  RH WIND       PRES   REMARKS
BOSTON         PTCLDY    58  52  80 NE10      29.89F
WORCESTER      NOT AVBL
WESTFIELD      LGT RAIN  59  55  87 N6        29.88F
PROVINCETOWN   CLOUDY    51  50  96 NE13      29.89F FOG
NANTUCKET      CLOUDY    52  50  93 NE13      29.85F FOG
$$

ANZ330-335-338-340-345-350-353-355-240800-
COASTAL MARINE OBSERVATIONS


STATION/POSITION TIME  SKY/WX   TEMP    WIND        PRES    VSBY  WAVE
                                AIR SEA DIR/SP/G                  HT/PER
                 (UTC)          (F)     (DEG/KT/KT) (MB)    (MI)  (FT/S)
NY HARB ENTRANCE 0550            58 57  290/ 12/ 14 1011.5          3/ 8
20S FIRE ISLAND  0550            56 54  320/ 16/ 17 1010.6          3/ 8
GREAT SOUTH BAY  0600            57 63  290/ 10/ 14   N/A
23 SSW MONTAUK P 0650            55 54  300/ 10/ 14 1010.4          3/ 9
15 E BARNEGAT LI 0622               54                N/A           3/11
HUDSON CANYON    0550            54 52              1010.4          5/ 9
KINGS POINT      0600            58 57              1012.2
EXECUTION ROCKS  NOT AVBL
CENTRAL LI SOUND 0600            58     310/ 14/ 17   N/A           1
EASTERN LI SOUND 0600            55 53  330/  8/ 10   N/A
ROBBINS REEF     0600            61     240/  3/  4 1011.7
$$


>>>>>>>>>>>>>>>>>>>>>>>>>>>> KEY <<<<<<<<<<<<<<<<<<<<<<<<<<<
>                                                          <
>     SKY/WX - SKY CONDITION/PRESENT WEATHER               <
>     TMP    - TEMPERATURE IN FAHRENHEIT                   <
>     DP     - DEWPOINT IN FAHRENHEIT                      <
>     RH     - RELATIVE HUMIDITY IN PERCENT                <
>     WIND   - DIRECTION AND SPEED IN MPH                  <
>     PRES   - MEAN SEA LEVEL PRESSURE IN INCHES OF HG     <
>     WCI    - WIND CHILL INDEX                            <
>     VSB    - VISIBILITY IN MILES                         <
>     HX     - HEAT INDEX                                  <
>     TC     - TEMPERATURE IN CELSIUS                      <
>     VRB    - VARIABLE WIND DIRECTION                     <
>                                                          <
>>>>>>>>>>>>>>>>>>>>>>>>>>>> KEY <<<<<<<<<<<<<<<<<<<<<<<<<<<






USA.gov is the U.S. government's official web portal to all federal, state and local government web resources and services.